Regional Weather Roundup
Issued by NWS

Home | Current Version | Previous Version | Text Only | Print | Product List | Glossary Off
Versions: 1 2 3 4 5 6 7 8 9 10 11 12 13 14 15 16 17 18 19 20 21 22 23 24 25 26 27 28 29 30 31 32 33 34 35 36 37 38 39 40 41 42 43 44 45 46 47 48 49 50

000
ASUS43 KLMK 011902
RWRKY
KENTUCKY REGIONAL WEATHER ROUNDUP
NATIONAL WEATHER SERVICE LOUISVILLE KY
300 PM EDT SAT OCT 01 2016

NOTE "FAIR" INDICATES FEW OR NO CLOUDS BELOW 12,000 FEET
WITH NO SIGNIFICANT WEATHER AND/OR OBSTRUCTIONS TO VISIBILITY.

KYZ001>023-026-027-061>063-070>075-012000-
WESTERN AND SOUTH CENTRAL KENTUCKY

CITY           SKY/WX    TMP DP  RH WIND       PRES   REMARKS
PADUCAH        CLOUDY    69  58  67 SW7       30.03F
HENDERSON      PTSUNNY   70  61  73 NW6       29.99F
OWENSBORO      RAIN     N/A N/A N/A W12       30.01F FOG
HOPKINSVILLE   PTSUNNY   69  58  70 SW10      30.04F
BOWLING GREEN  CLOUDY    69  58  67 W9        30.04F
GLASGOW        CLOUDY    66  58  77 SW7       30.04F
$$

KYZ024-025-028>034-038-045-046-053-012000-
NORTH CENTRAL KENTUCKY

CITY           SKY/WX    TMP DP  RH WIND       PRES   REMARKS
LOUISVILLE/SDF PTSUNNY   71  58  63 VRB3      30.01F
LOUISVILLE/LOU CLOUDY    66  56  70 SW8       30.02F
FORT KNOX      PTSUNNY   69  57  66 S5        29.99F
$$

KYZ035>037-039>044-047>052-055>060-089>105-012000-
NORTHEAST KENTUCKY

CITY           SKY/WX    TMP DP  RH WIND       PRES   REMARKS
LEXINGTON      CLOUDY    65  56  72 S9        30.04F
COVINGTON      PTSUNNY   65  55  70 S8        30.02F
FRANKFORT      CLOUDY    66  58  75 VRB6      30.03F
$$

KYZ054-064>069-076>088-106>120-012000-
SOUTHEAST KENTUCKY

CITY           SKY/WX    TMP DP  RH WIND       PRES   REMARKS
JACKSON        PTSUNNY   66  54  65 VRB5      30.07F
LONDON         CLOUDY    66  52  60 S6        30.07F
SOMERSET       CLOUDY    64  55  72 W5        30.08F
MIDDLESBORO    PTSUNNY   69  53  57 S6        30.09F
MONTICELLO     CLOUDY    67  57  70 W14       30.08F
$$





USA.gov is the U.S. government's official web portal to all federal, state and local government web resources and services.